Date,TemperatureHighF,TemperatureAvgF,TemperatureLowF,DewpointHighF,DewpointAvgF,DewpointLowF,HumidityHigh,HumidityAvg,HumidityLow,PressureMaxIn,PressureMinIn,WindSpeedMaxMPH,WindSpeedAvgMPH,GustSpeedMaxMPH,PrecipitationSumIn
2013-3-1,37.8,28.9,21.2,29.5,23.1,13.1,100,81,48,30.26,30.11,16,8,17,0.00
2013-3-2,34.7,25.6,12.7,24.8,14.1,5.1,100,65,40,30.29,30.23,17,7,17,0.00
2013-3-3,43.0,27.5,10.4,22.5,12.9,4.3,100,57,36,30.23,29.99,11,3,11,0.00
2013-3-4,50.4,37.6,31.1,28.9,23.4,14.8,90,60,32,30.02,29.78,18,7,18,0.00
2013-3-5,34.0,31.9,29.1,33.3,25.0,15.0,100,77,50,30.17,29.87,27,8,28,0.04
2013-3-6,38.5,28.5,16.5,19.9,14.9,8.6,94,58,38,30.37,30.17,22,8,24,0.00
2013-3-7,48.6,30.2,14.5,27.5,19.3,12.7,100,69,32,30.40,30.32,11,3,11,0.00
2013-3-8,51.1,38.2,28.4,27.4,23.5,19.1,94,59,32,30.37,30.14,15,7,15,0.00
2013-3-9,51.6,43.3,37.4,41.4,34.7,25.2,100,74,48,30.14,29.72,21,9,21,0.94
2013-3-10,52.7,48.0,39.2,52.7,48.0,39.2,100,100,100,29.78,29.58,18,6,24,0.63
2013-3-11,39.2,33.8,29.3,39.2,29.4,19.3,100,85,60,29.96,29.70,17,8,21,0.00
2013-3-12,44.6,31.9,24.3,25.5,20.2,16.0,86,63,40,30.23,29.96,24,8,24,0.00
2013-3-13,40.5,30.8,22.8,17.3,13.6,7.3,66,50,36,30.43,30.23,22,8,22,0.00
2013-3-14,61.2,40.7,25.9,28.9,20.6,13.8,68,47,28,30.35,30.05,21,5,21,0.00
2013-3-15,68.2,49.9,32.7,43.5,31.3,23.1,88,54,24,30.08,29.67,12,3,12,0.00
2013-3-16,45.5,39.0,35.2,44.1,32.4,25.3,100,78,58,30.11,29.67,25,10,25,0.00
2013-3-17,41.7,34.4,31.3,35.1,26.0,17.4,100,73,42,30.14,29.84,21,6,21,0.04
2013-3-18,50.2,38.0,29.3,40.3,27.4,7.8,100,72,32,30.02,29.72,28,8,28,0.04
2013-3-19,46.8,34.1,24.1,19.9,12.0,5.1,48,40,34,30.20,29.99,17,7,18,0.00
2013-3-20,35.1,26.7,18.5,16.4,8.2,1.4,64,45,40,30.29,30.14,28,12,28,0.00
2013-3-21,45.5,27.2,13.3,19.1,8.9,2.3,72,47,34,30.14,29.96,15,3,15,0.00
2013-3-22,45.9,33.3,20.1,19.1,13.9,3.7,74,46,34,30.05,29.99,9,1,11,0.00
2013-3-23,58.8,42.2,32.4,35.2,21.3,14.2,100,46,28,30.05,29.90,20,4,20,0.00
2013-3-24,33.6,31.8,30.2,33.6,31.8,30.2,100,100,100,29.96,29.72,26,11,28,0.00
2013-3-25,36.9,32.1,29.7,31.3,24.2,14.2,100,75,44,30.20,29.87,19,10,21,0.00
2013-3-26,43.7,33.6,26.2,21.9,18.0,10.4,82,54,36,30.35,30.20,13,6,15,0.00
2013-3-27,52.3,36.0,22.8,30.4,19.8,12.7,92,56,32,30.37,30.29,8,2,8,0.00
2013-3-28,58.8,42.8,29.7,25.9,21.4,15.1,64,44,28,30.35,30.20,11,3,11,0.00
2013-3-29,68.2,48.4,31.1,34.2,29.6,21.8,100,55,24,30.26,30.17,11,2,13,0.00
2013-3-30,55.8,48.2,41.5,44.1,37.3,29.9,96,68,40,30.20,29.90,20,7,20,0.00
2013-3-31,65.5,52.6,39.7,50.5,36.0,18.0,100,61,26,30.02,29.84,22,8,24,0.00